Location: Great Malvern
(52.1167°N, 2.3167°W)
Time: 23:59:55
(UTC+00:00)

CRYOSAT 2 - Pass Details

Date: 18 September 2020
Orbit: 714 x 725 km, 92.0° (Epoch: 23 October)

Event Time Altitude Azimuth Distance (km) Brightness Sun altitude
Rises 20:49:22 0° 5° (N) 3,155 8.1 -22.8°
Reaches altitude 10° 20:51:41 10° 8° (N) 2,228 7.2 -23.1°
Maximum altitude 20:56:36 73° 93° (E) 760 4.2 -23.7°
Enters shadow 20:56:56 70° 127° (SE) 772 4.2 -23.7°
